MOLNIYA 1-53

Last updated on Dec. 5, 2020, 6:14 a.m. UTC

1 13070U 82015A   20338.98610966  .00001194  00000-0  54756-3 0  9993
2 13070  62.5006 292.9181 7387171 278.4685  11.5659  2.00843075284019
UTC
Height (km)
Latitude
Longitude
Inclination
Orbital Period
UTC large
Height (km)
Speed (km/s)
/
Latitude / Longitude
Inclination (degrees)
Orbital Period (minutes)
Azimuth
Elevation
Range (km)
Doppler Factor
iOS Compass Heading
iOS Angle

Next 30 passes for location: Hong Kong

Rise time Rise Azimuth (degrees) Set time Set Azimuth (degrees) Duration Max altitude (degrees)

No matching passes for this satellites